User: anonymous   Login
Location: Unspecified
(0.0000°N, 0.0000°E)
Time: 08:08:28
(UTC+00:00)
Language:

BIROS - Orbit

View from above orbital plane
View from above orbital plane
View from above satellite
View from above satellite

Ground track
Ground track

The orbit data is extracted from the following two-line orbital elements,

1 41604U 16040F   18173.74753842 +.00000447 +00000-0 +22991-4 0  9998
2 41604 097.4129 236.5507 0011758 203.9966 156.0723 15.21372936111011
Epoch (UTC): 22 June 2018 17:56:27
Eccentricity: 0.0011758
inclination: 97.4129°
perigee height: 493 km
apogee height: 510 km
right ascension of ascending node: 236.5507°
argument of perigee: 203.9966°
revolutions per day: 15.21372936
mean anomaly at epoch: 156.0723°
orbit number at epoch: 11101

The dashed part of the orbit path shows where the satellite is in the earth's shadow,  

DLR